カタログに戻る

ARKTIKA-M 2

運用中気象HEO
NORAD 58584·PAYLOAD·🇷🇺 Russia

打ち上げ Dec 16, 2023 から Baikonur Cosmodrome

Loading…

次のパス (今後24時間)

TLE

古いSource: Space-Track

元期: Aug 18, 2026, 01:47 UTC

1 58584U 23198A   26230.07438780  .00000056  00000-0  00000-0 0  9994
2 58584  63.2129 147.3319 6901614 267.6403  18.7125  2.00593343 19562

AllMySatでARKTIKA-M 2をリアルタイム追跡

Download on the App Store